Flag for Portugal Weather past 2 weeks in Porto, Portugal

Now
54 °F

Partly sunny.


Feels Like: 50 °F
Forecast: 51 / 54 °F
Wind: 10 mph from South

Location: Porto / Pedras Rubras

Current Time: Mar 1, 2015 at 8:42:03 AM

Latest Report: Mar 1, 2015 at 8:00 AM


Visibility: 5 mi

Pressure: 30.30 "Hg

Humidity: 100%

Dew point: 54 °F

Location of PortoLocation

Historic Weather in Porto — Graph

°F

Porto temperature yesterday

Maximum temperature yesterday: 55 °F (at 11:30 AM)
Minimum temperature yesterday: 48 °F (at 2:30 AM)
Average temperature yesterday: 52 °F

Past Weeks' High & Low Weather Summary

 TemperatureHumidityPressure
High61 °F (Feb 19, 1:00 PM)100% (Feb 14, 7:00 AM)30.60 "Hg (Feb 14, 7:00 AM)
Low37 °F (Feb 18, 2:00 AM)31% (Feb 18, 2:30 PM)29.92 "Hg (Feb 14, 6:00 PM)
Average51 °F83%30.30 "Hg
* Reported Feb 14 7:00 AM — Mar 1 7:00 AM, Porto, Weather by CustomWeather, © 2015

Note: Actual official high and low records may vary slightly from our data, if they occured in-between our weather recording intervals... More about our weather records

Advertising

Porto weather history for previous 24 hours

 ConditionsComfort  
Time TempWeatherWind HumidityBarometerVisibility
7:00 AM
Sun, Mar 1
54 °FPassing clouds.7 mph100%30.30 "Hg6 mi
6:30 AM54 °FPassing clouds.8 mph100%30.30 "Hg6 mi
6:00 AM54 °FPassing clouds.7 mph100%30.30 "Hg6 mi
5:30 AM54 °FPartly cloudy.5 mph100%30.30 "Hg6 mi
5:00 AM54 °FPassing clouds.7 mph100%30.30 "Hg6 mi
4:30 AM54 °FPassing clouds.7 mph100%30.30 "Hg6 mi
4:00 AM54 °FPassing clouds.6 mph100%30.30 "Hg5 mi
3:00 AM54 °FPartly cloudy.6 mph100%30.33 "HgN/A
2:30 AM54 °FPartly cloudy.5 mph100%30.33 "HgN/A
2:00 AM54 °FPassing clouds.7 mph100%30.36 "HgN/A
1:30 AM54 °FPassing clouds.5 mph100%30.36 "Hg6 mi
1:00 AM54 °FPassing clouds.6 mph100%30.33 "Hg5 mi
12:30 AM54 °FPartly cloudy.5 mph100%30.33 "Hg5 mi
12:00 AM54 °FPassing clouds.5 mph100%30.33 "Hg5 mi
11:30 PM
Sat, Feb 28
54 °FPassing clouds.5 mph100%30.33 "Hg4 mi
11:00 PM54 °FPassing clouds.6 mph100%30.33 "Hg4 mi
10:30 PM54 °FFog.6 mph100%30.33 "Hg3 mi
10:00 PM55 °FFog.6 mph100%30.36 "Hg2 mi
9:00 PM55 °FDrizzle. Fog.5 mph94%30.36 "Hg2 mi
8:30 PM55 °FDrizzle. Fog.5 mph100%30.36 "Hg2 mi
8:00 PM55 °FFog.5 mph94%30.36 "Hg1 mi
7:30 PM55 °FFog.5 mph94%30.33 "Hg3 mi
7:00 PM55 °FFog.2 mph94%30.33 "Hg3 mi
6:30 PM55 °FFog.3 mph94%30.33 "Hg2 mi
6:00 PM55 °FFog.2 mph94%30.33 "Hg2 mi
5:30 PM55 °FFog.3 mph94%30.33 "Hg3 mi
5:00 PM55 °FFog.5 mph100%30.33 "Hg3 mi
4:30 PM55 °FCloudy.5 mph100%30.33 "Hg4 mi
4:00 PM55 °FBroken clouds.6 mph100%30.30 "Hg4 mi
3:30 PM55 °FPartly sunny.6 mph100%30.30 "Hg4 mi
3:00 PM55 °FDrizzle. Fog.6 mph100%30.30 "Hg2 mi
2:30 PM55 °FDrizzle. Fog.7 mph100%30.30 "Hg2 mi
2:00 PM55 °FDrizzle. Fog.6 mph100%30.33 "Hg1 mi
1:30 PM55 °FDrizzle. Fog.6 mph100%30.33 "Hg2 mi
1:00 PM55 °FDrizzle. Fog.5 mph100%30.33 "Hg2 mi
12:30 PM55 °FDrizzle. Fog.5 mph100%30.33 "Hg2 mi
12:00 PM55 °FDrizzle. Fog.5 mph100%30.36 "Hg1 mi
11:30 AM55 °FDrizzle. Fog.3 mph94%30.36 "Hg1 mi
11:00 AM54 °FSnow. Cloudy.6 mph100%30.36 "Hg1 mi
10:30 AM54 °FDrizzle. Fog.7 mph94%30.36 "Hg1 mi
10:00 AM52 °FDrizzle. Fog.8 mph100%30.36 "Hg1 mi
9:30 AM50 °FDrizzle. Fog.7 mph100%30.36 "Hg2 mi
9:00 AM50 °FDrizzle. Fog.7 mph100%30.36 "Hg2 mi
8:30 AM50 °FDrizzle. Fog.7 mph94%30.36 "Hg1 mi
8:00 AM50 °FFog.6 mph94%30.33 "Hg2 mi
Weather by CustomWeather, © 2015

See weather overviewHow to use our weather pages